Weather in Kerdem

Russia / Sakha (Yakutia) Republic     61°25′49″N   129°11′48″E
temp.,
°C
wind,
m/s
gust,
m/s
humid.,
%
clouds,
%
prec.,
mm/h
press.,
hPa
HPBL,
m
29 june, wed
wed2900:00+14wnw118639 0.0 100012
03:00+12w119340 0.0 100112
06:00+15wnw12625 0.0 1003223
09:00+20nw1248100 0.0 1004658
12:00+19nne3251100 0.0 1004451
15:00+19ene245664 0.0 1004295
18:00+24e114971 0.0 1003592
21:00+19ese2372100 0.0 100360
30 june, thu
thu3000:00+17se1180100 0.0 100215
03:00+17sse1188100 0.2 100314
06:00+19wsw2684100 0.2 1004273
09:00+21wnw4579100 0.5 1004829
12:00+20nw347779 0.2 1006639
15:00+24nw345498 0.3 10061616
18:00+21w237198 0.1 1006103
21:00+19wnw017793 0.3 100711
1 july, fri
fri100:00+15sw228993 0.0 100714
03:00+13wsw119325 0.0 100811
06:00+17w1179100 0.0 100798
09:00+21nw1261100 0.0 1007413
12:00+24ne124589 0.1 10071325
15:00+27n343259 0.1 10052690
18:00+24w354767 0.0 10061197
21:00+19w1370100 0.0 100769
2 july, sat
sat200:00+15wsw11820 0.0 100811
03:00+13s11880 0.0 100911
06:00+17w11730 0.0 1009150
09:00+23w11510 0.0 1008718
12:00+26nne11360 0.0 10062000
15:00+27e1133100 0.0 10052175
18:00+26ese1239100 0.0 10041235
21:00+21e2258100 0.0 100418
3 july, sun
sun300:00+18e1165100 0.0 100511
03:00+16nnw1187100 1.3 100512
06:00+16e2492100 1.2 1005120
09:00+19e367566 1.2 1003298
12:00+24ese46472 0.0 10031232
15:00+26ese44431 0.0 10021619
18:00+24e33480 0.0 10021219
21:00+20e237213 0.0 100238